| time (UTC) | temp F | wind direction | speed knots | gust knots | rain 1hr in | rain 24hr in | rain mn in | humidity % | barometer mb |
| 20260507210602 | 95 | 122 | 1.7 | 6.1 | 0.00 | 0.00 | 0.00 | 14 | 1010.9 |
| 20260507210059 | 93 | 150 | 2.6 | 6.1 | 0.00 | 0.00 | 0.00 | 12 | 1010.9 |
| 20260507205559 | 94 | 102 | 2.6 | 9.6 | 0.00 | 0.00 | 0.00 | 12 | 1011.0 |
| 20260507205058 | 94 | 180 | 3.5 | 9.6 | 0.00 | 0.00 | 0.00 | 14 | 1011.2 |
| 20260507204600 | 93 | 118 | 1.7 | 8.7 | 0.00 | 0.00 | 0.00 | 14 | 1011.2 |
| 20260507204058 | 94 | 123 | 4.3 | 7.8 | 0.00 | 0.00 | 0.00 | 13 | 1011.4 |
| 20260507203558 | 94 | 105 | 3.5 | 9.6 | 0.00 | 0.00 | 0.00 | 14 | 1011.5 |
| 20260507203101 | 95 | 112 | 5.2 | 9.6 | 0.00 | 0.00 | 0.00 | 13 | 1011.6 |
| 20260507202559 | 94 | 208 | 4.3 | 9.6 | 0.00 | 0.00 | 0.00 | 14 | 1011.5 |
| 20260507202059 | 93 | 219 | 2.6 | 7.8 | 0.00 | 0.00 | 0.00 | 15 | 1011.5 |
| 20260507201600 | 94 | 119 | 3.5 | 7.8 | 0.00 | 0.00 | 0.00 | 14 | 1011.6 |
| 20260507201059 | 93 | 205 | 2.6 | 11.3 | 0.00 | 0.00 | 0.00 | 14 | 1011.7 |
| 20260507200559 | 93 | 300 | 0.9 | 11.3 | 0.00 | 0.00 | 0.00 | 13 | 1011.8 |
| 20260507200109 | 94 | 186 | 3.5 | 11.3 | 0.00 | 0.00 | 0.00 | 14 | 1012.0 |
| 20260507195559 | 94 | 108 | 3.5 | 10.4 | 0.00 | 0.00 | 0.00 | 14 | 1011.8 |
| 20260507195058 | 94 | 155 | 5.2 | 10.4 | 0.00 | 0.00 | 0.00 | 15 | 1011.9 |
| 20260507194557 | 94 | 231 | 3.5 | 10.4 | 0.00 | 0.00 | 0.00 | 14 | 1012.0 |
| 20260507194058 | 93 | 134 | 3.5 | 8.7 | 0.00 | 0.00 | 0.00 | 15 | 1012.1 |
| 20260507193558 | 93 | 128 | 4.3 | 8.7 | 0.00 | 0.00 | 0.00 | 15 | 1012.1 |
| 20260507193059 | 93 | 131 | 4.3 | 7.8 | 0.00 | 0.00 | 0.00 | 16 | 1012.2 |
| 20260507192558 | 93 | 153 | 3.5 | 8.7 | 0.00 | 0.00 | 0.00 | 15 | 1012.2 |
| 20260507192101 | 92 | 149 | 4.3 | 8.7 | 0.00 | 0.00 | 0.00 | 14 | 1012.4 |
| 20260507191600 | 92 | 118 | 4.3 | 8.7 | 0.00 | 0.00 | 0.00 | 14 | 1012.4 |
| 20260507191059 | 93 | 117 | 3.5 | 8.7 | 0.00 | 0.00 | 0.00 | 14 | 1012.5 |
| 20260507190559 | 93 | 277 | 3.5 | 10.4 | 0.00 | 0.00 | 0.00 | 14 | 1012.5 |
| 20260507190059 | 92 | 148 | 2.6 | 10.4 | 0.00 | 0.00 | 0.00 | 15 | 1012.5 |
| 20260507185600 | 91 | 142 | 5.2 | 10.4 | 0.00 | 0.00 | 0.00 | 14 | 1012.7 |
| 20260507185059 | 91 | 125 | 5.2 | 10.4 | 0.00 | 0.00 | 0.00 | 15 | 1012.8 |
| 20260507184606 | 92 | 122 | 4.3 | 9.6 | 0.00 | 0.00 | 0.00 | 15 | 1012.8 |
| 20260507184058 | 91 | 165 | 4.3 | 9.6 | 0.00 | 0.00 | 0.00 | 15 | 1012.9 |
| 20260507183558 | 90 | 142 | 5.2 | 10.4 | 0.00 | 0.00 | 0.00 | 15 | 1013.0 |
| 20260507183057 | 91 | 152 | 5.2 | 10.4 | 0.00 | 0.00 | 0.00 | 14 | 1013.1 |
| 20260507182600 | 92 | 127 | 3.5 | 7.8 | 0.00 | 0.00 | 0.00 | 14 | 1013.2 |
| 20260507182059 | 91 | 127 | 2.6 | 7.8 | 0.00 | 0.00 | 0.00 | 15 | 1013.2 |
| 20260507181605 | 90 | 212 | 3.5 | 8.7 | 0.00 | 0.00 | 0.00 | 15 | 1013.3 |
| 20260507181058 | 89 | 231 | 3.5 | 8.7 | 0.00 | 0.00 | 0.00 | 14 | 1013.3 |
| 20260507180601 | 90 | 128 | 4.3 | 7.8 | 0.00 | 0.00 | 0.00 | 14 | 1013.4 |
| 20260507180059 | 90 | 352 | 1.7 | 6.1 | 0.00 | 0.00 | 0.00 | 14 | 1013.5 |
| 20260507175602 | 90 | 226 | 3.5 | 8.7 | 0.00 | 0.00 | 0.00 | 15 | 1013.5 |
| 20260507175058 | 89 | 131 | 3.5 | 8.7 | 0.00 | 0.00 | 0.00 | 15 | 1013.6 |
| 20260507174609 | 89 | 125 | 4.3 | 8.7 | 0.00 | 0.00 | 0.00 | 14 | 1013.6 |
| 20260507174101 | 90 | 150 | 1.7 | 6.1 | 0.00 | 0.00 | 0.00 | 15 | 1013.6 |
| 20260507173559 | 89 | 152 | 2.6 | 6.1 | 0.00 | 0.00 | 0.00 | 14 | 1013.7 |
| 20260507173100 | 89 | 117 | 1.7 | 7.8 | 0.00 | 0.00 | 0.00 | 14 | 1013.7 |
| 20260507172601 | 89 | 85 | 4.3 | 7.8 | 0.00 | 0.00 | 0.00 | 13 | 1013.8 |
| 20260507172057 | 89 | 64 | 2.6 | 7.8 | 0.00 | 0.00 | 0.00 | 14 | 1013.8 |
| 20260507171605 | 88 | 34 | 2.6 | 7.8 | 0.00 | 0.00 | 0.00 | 14 | 1013.8 |
| 20260507171058 | 88 | 81 | 2.6 | 7.8 | 0.00 | 0.00 | 0.00 | 14 | 1014.0 |
| 20260507170559 | 88 | 72 | 3.5 | 7.8 | 0.00 | 0.00 | 0.00 | 14 | 1013.9 |
| 20260507170059 | 88 | 92 | 1.7 | 7.0 | 0.00 | 0.00 | 0.00 | 14 | 1014.0 |
| 20260507165558 | 88 | 83 | 1.7 | 7.0 | 0.00 | 0.00 | 0.00 | 14 | 1014.1 |
| 20260507165058 | 87 | 33 | 3.5 | 6.1 | 0.00 | 0.00 | 0.00 | 14 | 1014.1 |
| 20260507164600 | 87 | 56 | 2.6 | 6.1 | 0.00 | 0.00 | 0.00 | 14 | 1014.1 |
| 20260507164102 | 87 | 56 | 2.6 | 8.7 | 0.00 | 0.00 | 0.00 | 14 | 1014.2 |
| 20260507163559 | 86 | 98 | 3.5 | 8.7 | 0.00 | 0.00 | 0.00 | 14 | 1014.2 |
| 20260507163100 | 86 | 97 | 2.6 | 7.0 | 0.00 | 0.00 | 0.00 | 15 | 1014.2 |
| 20260507162558 | 86 | 65 | 3.5 | 9.6 | 0.00 | 0.00 | 0.00 | 15 | 1014.2 |
| 20260507162058 | 86 | 47 | 4.3 | 9.6 | 0.00 | 0.00 | 0.00 | 15 | 1014.1 |
| 20260507161601 | 86 | 84 | 4.3 | 7.8 | 0.00 | 0.00 | 0.00 | 15 | 1014.3 |
| 20260507161058 | 85 | 120 | 1.7 | 7.8 | 0.00 | 0.00 | 0.00 | 15 | 1014.4 |
| 20260507160558 | 85 | 122 | 3.5 | 9.6 | 0.00 | 0.00 | 0.00 | 14 | 1014.4 |
| 20260507160100 | 84 | 78 | 2.6 | 9.6 | 0.00 | 0.00 | 0.00 | 15 | 1014.4 |
| 20260507155557 | 84 | 65 | 2.6 | 9.6 | 0.00 | 0.00 | 0.00 | 15 | 1014.5 |
| 20260507155058 | 83 | 65 | 6.1 | 9.6 | 0.00 | 0.00 | 0.00 | 16 | 1014.5 |
| 20260507154605 | 83 | 70 | 5.2 | 8.7 | 0.00 | 0.00 | 0.00 | 16 | 1014.5 |
| 20260507154059 | 83 | 89 | 4.3 | 9.6 | 0.00 | 0.00 | 0.00 | 16 | 1014.6 |
| 20260507153559 | 83 | 44 | 5.2 | 9.6 | 0.00 | 0.00 | 0.00 | 16 | 1014.6 |
| 20260507153102 | 82 | 31 | 4.3 | 9.6 | 0.00 | 0.00 | 0.00 | 16 | 1014.7 |
| 20260507152558 | 82 | 67 | 4.3 | 9.6 | 0.00 | 0.00 | 0.00 | 17 | 1014.6 |
| 20260507152057 | 82 | 83 | 3.5 | 9.6 | 0.00 | 0.00 | 0.00 | 17 | 1014.5 |
| 20260507151559 | 81 | 84 | 4.3 | 9.6 | 0.00 | 0.00 | 0.00 | 18 | 1014.5 |
| 20260507151058 | 81 | 93 | 4.3 | 7.8 | 0.00 | 0.00 | 0.00 | 19 | 1014.5 |
| 20260507150558 | 81 | 342 | 4.3 | 9.6 | 0.00 | 0.00 | 0.00 | 19 | 1014.5 |
| 20260507150058 | 80 | 56 | 5.2 | 10.4 | 0.00 | 0.00 | 0.00 | 20 | 1014.6 |
| 20260507145558 | 80 | 75 | 5.2 | 11.3 | 0.00 | 0.00 | 0.00 | 20 | 1014.7 |
| 20260507145057 | 79 | 60 | 6.1 | 11.3 | 0.00 | 0.00 | 0.00 | 20 | 1014.6 |
| 20260507144557 | 79 | 72 | 4.3 | 10.4 | 0.00 | 0.00 | 0.00 | 21 | 1014.6 |
| 20260507144058 | 78 | 68 | 4.3 | 10.4 | 0.00 | 0.00 | 0.00 | 22 | 1014.6 |
| 20260507143559 | 78 | 60 | 5.2 | 10.4 | 0.00 | 0.00 | 0.00 | 23 | 1014.7 |
| 20260507143058 | 78 | 58 | 0.0 | 1.7 | 0.00 | 0.00 | 0.00 | 26 | 1014.6 |
| 20260507142558 | 76 | 0 | 0.0 | 2.6 | 0.00 | 0.00 | 0.00 | 28 | 1014.6 |
| 20260507142058 | 74 | 57 | 0.9 | 2.6 | 0.00 | 0.00 | 0.00 | 29 | 1014.5 |
| 20260507141559 | 72 | 0 | 0.0 | 0.0 | 0.00 | 0.00 | 0.00 | 32 | 1014.5 |
| 20260507141058 | 70 | 0 | 0.0 | 0.0 | 0.00 | 0.00 | 0.00 | 35 | 1014.6 |
| 20260507140557 | 69 | 0 | 0.0 | 0.0 | 0.00 | 0.00 | 0.00 | 35 | 1014.6 |
| 20260507140104 | 68 | 0 | 0.0 | 0.0 | 0.00 | 0.00 | 0.00 | 36 | 1014.6 |
| 20260507135602 | 67 | 0 | 0.0 | 0.9 | 0.00 | 0.00 | 0.00 | 36 | 1014.6 |
| 20260507135058 | 67 | 0 | 0.0 | 1.7 | 0.00 | 0.00 | 0.00 | 37 | 1014.5 |
| 20260507134600 | 67 | 0 | 0.0 | 1.7 | 0.00 | 0.00 | 0.00 | 37 | 1014.6 |
| 20260507134057 | 66 | 276 | 0.0 | 1.7 | 0.00 | 0.00 | 0.00 | 38 | 1014.4 |
| 20260507133558 | 66 | 0 | 0.0 | 0.0 | 0.00 | 0.00 | 0.00 | 38 | 1014.4 |
| 20260507133101 | 65 | 0 | 0.0 | 0.0 | 0.00 | 0.00 | 0.00 | 38 | 1014.3 |
| 20260507132558 | 65 | 0 | 0.0 | 0.9 | 0.00 | 0.00 | 0.00 | 37 | 1014.3 |
| 20260507132058 | 64 | 0 | 0.0 | 1.7 | 0.00 | 0.00 | 0.00 | 38 | 1014.3 |
| 20260507131602 | 64 | 247 | 0.9 | 1.7 | 0.00 | 0.00 | 0.00 | 38 | 1014.2 |
| 20260507131058 | 64 | 212 | 0.0 | 0.9 | 0.00 | 0.00 | 0.00 | 38 | 1014.1 |
| 20260507130558 | 64 | 255 | 0.0 | 0.0 | 0.00 | 0.00 | 0.00 | 37 | 1014.1 |
| 20260507130110 | 65 | 0 | 0.0 | 0.0 | 0.00 | 0.00 | 0.00 | 35 | 1014.1 |
| 20260507125558 | 66 | 0 | 0.0 | 1.7 | 0.00 | 0.00 | 0.00 | 35 | 1014.1 |
| 20260507125100 | 66 | 0 | 0.0 | 4.3 | 0.00 | 0.00 | 0.00 | 35 | 1013.9 |
| 20260507124558 | 66 | 314 | 0.9 | 4.3 | 0.00 | 0.00 | 0.00 | 35 | 1013.9 |
| 20260507124058 | 65 | 254 | 0.0 | 1.7 | 0.00 | 0.00 | 0.00 | 35 | 1013.8 |
| 20260507123600 | 65 | 0 | 0.0 | 1.7 | 0.00 | 0.00 | 0.00 | 35 | 1013.9 |
| 20260507123100 | 66 | 0 | 0.0 | 3.5 | 0.00 | 0.00 | 0.00 | 35 | 1013.8 |
| 20260507122558 | 68 | 301 | 0.9 | 3.5 | 0.00 | 0.00 | 0.00 | 34 | 1013.9 |
| 20260507122058 | 68 | 3 | 0.9 | 2.6 | 0.00 | 0.00 | 0.00 | 33 | 1013.9 |
| 20260507121606 | 68 | 351 | 0.0 | 3.5 | 0.00 | 0.00 | 0.00 | 33 | 1013.9 |
| 20260507121058 | 69 | 68 | 1.7 | 6.1 | 0.00 | 0.00 | 0.00 | 32 | 1013.9 |
| 20260507120604 | 69 | 118 | 0.9 | 6.1 | 0.00 | 0.00 | 0.00 | 32 | 1013.9 |
| 20260507115558 | 70 | 49 | 0.9 | 7.0 | 0.00 | 0.00 | 0.00 | 32 | 1013.9 |
| 20260507115058 | 70 | 18 | 1.7 | 7.0 | 0.00 | 0.00 | 0.00 | 32 | 1014.0 |
| 20260507114613 | 70 | 68 | 2.6 | 7.0 | 0.00 | 0.00 | 0.00 | 32 | 1014.1 |
| 20260507114100 | 70 | 44 | 3.5 | 7.0 | 0.00 | 0.00 | 0.00 | 32 | 1014.1 |
| 20260507113558 | 70 | 51 | 1.7 | 5.2 | 0.00 | 0.00 | 0.00 | 32 | 1014.2 |
| 20260507113100 | 69 | 68 | 2.6 | 5.2 | 0.00 | 0.00 | 0.00 | 32 | 1014.2 |
| 20260507112602 | 69 | 289 | 1.7 | 5.2 | 0.00 | 0.00 | 0.00 | 33 | 1014.3 |
| 20260507112101 | 68 | 314 | 0.0 | 6.1 | 0.00 | 0.00 | 0.00 | 33 | 1014.3 |
| 20260507111606 | 69 | 315 | 1.7 | 7.0 | 0.00 | 0.00 | 0.00 | 32 | 1014.3 |
| 20260507111058 | 69 | 342 | 1.7 | 7.0 | 0.00 | 0.00 | 0.00 | 34 | 1014.3 |
| 20260507110559 | 68 | 330 | 0.9 | 3.5 | 0.00 | 0.00 | 0.00 | 34 | 1014.4 |
| 20260507110111 | 68 | 319 | 0.9 | 2.6 | 0.00 | 0.00 | 0.00 | 33 | 1014.4 |
| 20260507105558 | 67 | 352 | 0.9 | 2.6 | 0.00 | 0.00 | 0.00 | 33 | 1014.5 |
| 20260507105058 | 67 | 303 | 0.9 | 2.6 | 0.00 | 0.00 | 0.00 | 34 | 1014.4 |
| 20260507104558 | 67 | 316 | 0.0 | 2.6 | 0.00 | 0.00 | 0.00 | 34 | 1014.5 |
| 20260507104057 | 67 | 295 | 0.0 | 3.5 | 0.00 | 0.00 | 0.00 | 34 | 1014.5 |
| 20260507103557 | 67 | 348 | 1.7 | 3.5 | 0.00 | 0.00 | 0.00 | 34 | 1014.5 |
| 20260507103058 | 67 | 309 | 0.9 | 2.6 | 0.00 | 0.00 | 0.00 | 34 | 1014.5 |
| 20260507102558 | 66 | 335 | 0.0 | 0.9 | 0.00 | 0.00 | 0.00 | 35 | 1014.6 |
| 20260507102058 | 65 | 0 | 0.0 | 0.9 | 0.00 | 0.00 | 0.00 | 35 | 1014.6 |
| 20260507101605 | 65 | 335 | 0.0 | 0.9 | 0.00 | 0.00 | 0.00 | 36 | 1014.6 |
| 20260507101058 | 64 | 0 | 0.0 | 0.9 | 0.00 | 0.00 | 0.00 | 36 | 1014.6 |
| 20260507100557 | 64 | 0 | 0.0 | 0.9 | 0.00 | 0.00 | 0.00 | 35 | 1014.6 |
| 20260507100057 | 64 | 1 | 0.0 | 1.7 | 0.00 | 0.00 | 0.00 | 35 | 1014.6 |
| 20260507095558 | 65 | 0 | 0.0 | 1.7 | 0.00 | 0.00 | 0.00 | 35 | 1014.6 |
| 20260507095101 | 65 | 1 | 0.0 | 0.9 | 0.00 | 0.00 | 0.00 | 34 | 1014.6 |
| 20260507094558 | 65 | 0 | 0.0 | 1.7 | 0.00 | 0.00 | 0.00 | 34 | 1014.6 |
| 20260507094058 | 66 | 297 | 0.0 | 3.5 | 0.00 | 0.00 | 0.00 | 33 | 1014.6 |
| 20260507093558 | 66 | 323 | 0.9 | 3.5 | 0.00 | 0.00 | 0.00 | 33 | 1014.6 |
| 20260507093059 | 66 | 349 | 0.9 | 2.6 | 0.00 | 0.00 | 0.00 | 33 | 1014.6 |
| 20260507092601 | 66 | 359 | 1.7 | 2.6 | 0.00 | 0.00 | 0.00 | 33 | 1014.6 |
| 20260507092059 | 66 | 0 | 0.9 | 1.7 | 0.00 | 0.00 | 0.00 | 33 | 1014.6 |
| 20260507091601 | 66 | 323 | 0.9 | 1.7 | 0.00 | 0.00 | 0.00 | 32 | 1014.6 |
| 20260507091058 | 67 | 315 | 0.0 | 2.6 | 0.00 | 0.00 | 0.00 | 32 | 1014.6 |
| 20260507090557 | 67 | 315 | 0.9 | 3.5 | 0.00 | 0.00 | 0.00 | 32 | 1014.7 |
| 20260507090104 | 68 | 324 | 1.7 | 3.5 | 0.00 | 0.00 | 0.00 | 31 | 1014.7 |
| 20260507085557 | 68 | 325 | 1.7 | 3.5 | 0.00 | 0.00 | 0.00 | 31 | 1014.7 |
| 20260507085058 | 68 | 339 | 1.7 | 3.5 | 0.00 | 0.00 | 0.00 | 31 | 1014.8 |
| 20260507084559 | 68 | 323 | 0.9 | 2.6 | 0.00 | 0.00 | 0.00 | 31 | 1014.7 |
| 20260507084103 | 68 | 276 | 0.9 | 3.5 | 0.00 | 0.00 | 0.00 | 32 | 1014.7 |
| 20260507083558 | 68 | 314 | 0.9 | 4.3 | 0.00 | 0.00 | 0.00 | 31 | 1014.9 |
| 20260507083059 | 67 | 330 | 1.7 | 4.3 | 0.00 | 0.00 | 0.00 | 31 | 1014.9 |
| 20260507082558 | 67 | 307 | 1.7 | 5.2 | 0.00 | 0.00 | 0.00 | 32 | 1014.9 |
| 20260507082100 | 67 | 319 | 1.7 | 5.2 | 0.00 | 0.00 | 0.00 | 31 | 1015.0 |
| 20260507081604 | 67 | 338 | 1.7 | 4.3 | 0.00 | 0.00 | 0.00 | 32 | 1014.9 |
| 20260507081100 | 67 | 326 | 0.9 | 1.7 | 0.00 | 0.00 | 0.00 | 31 | 1014.9 |
| 20260507080559 | 67 | 309 | 0.0 | 1.7 | 0.00 | 0.00 | 0.00 | 31 | 1014.9 |
| 20260507075558 | 67 | 295 | 0.9 | 2.6 | 0.00 | 0.00 | 0.00 | 31 | 1014.9 |
| 20260507075100 | 67 | 328 | 0.9 | 2.6 | 0.00 | 0.00 | 0.00 | 31 | 1015.0 |
| 20260507074611 | 67 | 328 | 1.7 | 2.6 | 0.00 | 0.00 | 0.00 | 31 | 1015.0 |
| 20260507074059 | 67 | 325 | 1.7 | 2.6 | 0.00 | 0.00 | 0.00 | 31 | 1015.0 |
| 20260507073559 | 68 | 332 | 1.7 | 2.6 | 0.00 | 0.00 | 0.00 | 31 | 1015.1 |
| 20260507073059 | 68 | 335 | 1.7 | 2.6 | 0.00 | 0.00 | 0.00 | 30 | 1015.1 |
| 20260507072600 | 68 | 342 | 1.7 | 2.6 | 0.00 | 0.00 | 0.00 | 30 | 1015.1 |
| 20260507072103 | 68 | 330 | 1.7 | 3.5 | 0.00 | 0.00 | 0.00 | 30 | 1015.0 |
| 20260507071559 | 68 | 323 | 1.7 | 3.5 | 0.00 | 0.00 | 0.00 | 30 | 1014.9 |
| 20260507071059 | 68 | 323 | 1.7 | 3.5 | 0.00 | 0.00 | 0.00 | 30 | 1015.0 |
| 20260507070559 | 68 | 302 | 2.6 | 5.2 | 0.00 | 0.00 | 0.00 | 30 | 1015.0 |
| 20260507070100 | 68 | 330 | 2.6 | 5.2 | 0.00 | 0.00 | 0.00 | 30 | 1015.0 |
| 20260507065603 | 68 | 340 | 2.6 | 4.3 | 0.00 | 0.00 | 0.00 | 30 | 1015.0 |
| 20260507065059 | 68 | 337 | 2.6 | 3.5 | 0.00 | 0.00 | 0.00 | 30 | 1015.0 |
| 20260507064558 | 68 | 332 | 1.7 | 2.6 | 0.00 | 0.00 | 0.00 | 32 | 1015.0 |
| 20260507064100 | 68 | 338 | 0.0 | 0.0 | 0.00 | 0.00 | 0.00 | 32 | 1015.0 |
| 20260507063559 | 68 | 0 | 0.0 | 0.0 | 0.00 | 0.00 | 0.00 | 33 | 1015.0 |
| 20260507063059 | 68 | 0 | 0.0 | 0.0 | 0.00 | 0.00 | 0.00 | 33 | 1014.9 |
| 20260507062559 | 68 | 0 | 0.0 | 0.0 | 0.00 | 0.00 | 0.00 | 32 | 1014.9 |
| 20260507062100 | 68 | 0 | 0.0 | 1.7 | 0.00 | 0.00 | 0.00 | 32 | 1014.9 |
| 20260507061607 | 69 | 0 | 0.0 | 1.7 | 0.00 | 0.00 | 0.00 | 32 | 1015.0 |
| 20260507061100 | 69 | 0 | 0.9 | 1.7 | 0.00 | 0.00 | 0.00 | 31 | 1014.9 |
| 20260507060559 | 69 | 0 | 0.0 | 0.9 | 0.00 | 0.00 | 0.00 | 32 | 1014.9 |
| 20260507060059 | 69 | 0 | 0.0 | 0.9 | 0.00 | 0.00 | 0.00 | 32 | 1014.8 |
| 20260507055559 | 69 | 0 | 0.0 | 0.9 | 0.00 | 0.00 | 0.00 | 33 | 1014.9 |
| 20260507055059 | 69 | 0 | 0.0 | 0.9 | 0.00 | 0.00 | 0.00 | 31 | 1015.0 |
| 20260507054639 | 70 | 0 | 0.0 | 0.9 | 0.00 | 0.00 | 0.00 | 32 | 1014.9 |
| 20260507054059 | 70 | 0 | 0.0 | 0.0 | 0.00 | 0.00 | 0.00 | 31 | 1014.9 |
| 20260507053600 | 70 | 0 | 0.0 | 0.0 | 0.00 | 0.00 | 0.00 | 32 | 1015.0 |
| 20260507053100 | 70 | 0 | 0.0 | 0.9 | 0.00 | 0.00 | 0.00 | 32 | 1015.0 |
| 20260507052600 | 70 | 0 | 0.0 | 0.9 | 0.00 | 0.00 | 0.00 | 31 | 1015.0 |
| 20260507052100 | 70 | 0 | 0.0 | 0.9 | 0.00 | 0.00 | 0.00 | 31 | 1015.0 |
| 20260507051559 | 70 | 51 | 0.0 | 0.9 | 0.00 | 0.00 | 0.00 | 30 | 1015.0 |
| 20260507051059 | 71 | 0 | 0.0 | 0.9 | 0.00 | 0.00 | 0.00 | 30 | 1014.9 |
| 20260507050559 | 71 | 139 | 0.0 | 0.9 | 0.00 | 0.00 | 0.00 | 31 | 1014.7 |
| 20260507050100 | 71 | 0 | 0.0 | 0.9 | 0.00 | 0.00 | 0.00 | 31 | 1014.7 |
| 20260507045600 | 71 | 0 | 0.0 | 0.9 | 0.00 | 0.00 | 0.00 | 31 | 1014.7 |
| 20260507045059 | 71 | 0 | 0.0 | 0.9 | 0.00 | 0.00 | 0.00 | 31 | 1014.6 |
| 20260507044602 | 71 | 139 | 0.0 | 0.9 | 0.00 | 0.00 | 0.00 | 31 | 1014.5 |
| 20260507044059 | 71 | 0 | 0.0 | 0.0 | 0.00 | 0.00 | 0.00 | 31 | 1014.6 |
| 20260507043558 | 72 | 0 | 0.0 | 0.9 | 0.00 | 0.00 | 0.00 | 30 | 1014.6 |
| 20260507043057 | 72 | 0 | 0.0 | 0.9 | 0.00 | 0.00 | 0.00 | 31 | 1014.5 |
| 20260507042558 | 71 | 0 | 0.0 | 0.9 | 0.00 | 0.00 | 0.00 | 30 | 1014.5 |
| 20260507042058 | 72 | 0 | 0.0 | 0.0 | 0.00 | 0.00 | 0.00 | 30 | 1014.5 |
| 20260507041604 | 73 | 0 | 0.0 | 0.9 | 0.00 | 0.00 | 0.00 | 31 | 1014.4 |
| 20260507041058 | 74 | 0 | 0.0 | 0.9 | 0.00 | 0.00 | 0.00 | 29 | 1014.3 |
| 20260507040558 | 74 | 0 | 0.0 | 0.9 | 0.00 | 0.00 | 0.00 | 29 | 1014.2 |
| 20260507040058 | 74 | 0 | 0.0 | 0.9 | 0.00 | 0.00 | 0.00 | 28 | 1014.1 |
| 20260507035557 | 75 | 0 | 0.0 | 0.9 | 0.00 | 0.00 | 0.00 | 28 | 1014.1 |
| 20260507035058 | 75 | 0 | 0.0 | 0.9 | 0.00 | 0.00 | 0.00 | 28 | 1013.9 |
| 20260507034601 | 75 | 0 | 0.0 | 0.9 | 0.00 | 0.00 | 0.00 | 28 | 1013.9 |
| 20260507034058 | 76 | 0 | 0.0 | 1.7 | 0.00 | 0.00 | 0.00 | 27 | 1013.9 |
| 20260507033558 | 76 | 139 | 0.0 | 1.7 | 0.00 | 0.00 | 0.00 | 27 | 1013.8 |
| 20260507033105 | 76 | 0 | 0.0 | 1.7 | 0.00 | 0.00 | 0.00 | 27 | 1013.8 |
| 20260507032559 | 76 | 0 | 0.0 | 2.6 | 0.00 | 0.00 | 0.00 | 27 | 1013.7 |
| 20260507032058 | 77 | 180 | 1.7 | 2.6 | 0.00 | 0.00 | 0.00 | 26 | 1013.6 |
| 20260507031608 | 77 | 161 | 0.9 | 2.6 | 0.00 | 0.00 | 0.00 | 26 | 1013.6 |
| 20260507031059 | 77 | 169 | 0.9 | 3.5 | 0.00 | 0.00 | 0.00 | 25 | 1013.6 |
| 20260507030558 | 78 | 173 | 1.7 | 4.3 | 0.00 | 0.00 | 0.00 | 25 | 1013.5 |
| 20260507030059 | 78 | 174 | 2.6 | 5.2 | 0.00 | 0.00 | 0.00 | 25 | 1013.4 |
| 20260507025601 | 78 | 193 | 2.6 | 5.2 | 0.00 | 0.00 | 0.00 | 25 | 1013.3 |
| 20260507025058 | 78 | 215 | 2.6 | 5.2 | 0.00 | 0.00 | 0.00 | 25 | 1013.2 |
| 20260507024600 | 79 | 268 | 2.6 | 7.0 | 0.00 | 0.00 | 0.00 | 25 | 1013.2 |
| 20260507024058 | 79 | 174 | 3.5 | 7.0 | 0.00 | 0.00 | 0.00 | 25 | 1013.1 |
| 20260507023558 | 79 | 233 | 2.6 | 7.0 | 0.00 | 0.00 | 0.00 | 25 | 1013.1 |
| 20260507023106 | 79 | 253 | 2.6 | 7.0 | 0.00 | 0.00 | 0.00 | 24 | 1013.1 |
| 20260507022559 | 80 | 240 | 3.5 | 7.0 | 0.00 | 0.00 | 0.00 | 24 | 1013.0 |
| 20260507022058 | 80 | 226 | 2.6 | 6.1 | 0.00 | 0.00 | 0.00 | 24 | 1013.0 |
| 20260507021602 | 80 | 234 | 2.6 | 6.1 | 0.00 | 0.00 | 0.00 | 24 | 1012.9 |
| 20260507021101 | 80 | 232 | 1.7 | 6.1 | 0.00 | 0.00 | 0.00 | 24 | 1012.9 |
| 20260507020559 | 80 | 134 | 2.6 | 6.1 | 0.00 | 0.00 | 0.00 | 25 | 1012.8 |
| 20260507020101 | 81 | 146 | 2.6 | 7.8 | 0.00 | 0.00 | 0.00 | 25 | 1012.8 |
| 20260507015558 | 81 | 162 | 3.5 | 7.8 | 0.00 | 0.00 | 0.00 | 24 | 1012.9 |
| 20260507015058 | 81 | 111 | 2.6 | 6.1 | 0.00 | 0.00 | 0.00 | 24 | 1012.8 |
| 20260507014605 | 81 | 155 | 3.5 | 6.1 | 0.00 | 0.00 | 0.00 | 24 | 1012.8 |
| 20260507014058 | 82 | 136 | 2.6 | 7.0 | 0.00 | 0.00 | 0.00 | 24 | 1012.8 |
| 20260507013558 | 82 | 136 | 4.3 | 8.7 | 0.00 | 0.00 | 0.00 | 24 | 1012.8 |
| 20260507013058 | 82 | 135 | 3.5 | 8.7 | 0.00 | 0.00 | 0.00 | 24 | 1012.8 |
| 20260507012558 | 82 | 121 | 4.3 | 7.8 | 0.00 | 0.00 | 0.00 | 24 | 1012.7 |
| 20260507012100 | 82 | 99 | 4.3 | 7.8 | 0.00 | 0.00 | 0.00 | 25 | 1012.7 |
| 20260507011559 | 82 | 121 | 4.3 | 7.8 | 0.00 | 0.00 | 0.00 | 24 | 1012.7 |
| 20260507011100 | 83 | 140 | 2.6 | 7.8 | 0.00 | 0.00 | 0.00 | 24 | 1012.7 |
| 20260507010558 | 82 | 114 | 5.2 | 7.8 | 0.00 | 0.00 | 0.00 | 24 | 1012.8 |
| 20260507010105 | 83 | 121 | 3.5 | 7.8 | 0.00 | 0.00 | 0.00 | 24 | 1012.8 |
| 20260507005559 | 83 | 150 | 4.3 | 7.0 | 0.00 | 0.00 | 0.00 | 24 | 1012.8 |
| 20260507005058 | 83 | 148 | 4.3 | 9.6 | 0.00 | 0.00 | 0.00 | 24 | 1012.7 |
| 20260507004600 | 83 | 148 | 4.3 | 9.6 | 0.00 | 0.00 | 0.00 | 25 | 1012.7 |
| 20260507004058 | 84 | 138 | 4.3 | 9.6 | 0.00 | 0.00 | 0.00 | 24 | 1012.7 |
| 20260507003559 | 84 | 185 | 4.3 | 7.0 | 0.00 | 0.00 | 0.00 | 23 | 1012.7 |
| 20260507003100 | 84 | 236 | 3.5 | 7.0 | 0.00 | 0.00 | 0.00 | 23 | 1012.7 |
| 20260507002558 | 84 | 181 | 5.2 | 7.8 | 0.00 | 0.00 | 0.00 | 23 | 1012.7 |
| 20260507002059 | 84 | 251 | 4.3 | 8.7 | 0.00 | 0.00 | 0.00 | 23 | 1012.7 |
| 20260507001604 | 84 | 180 | 3.5 | 8.7 | 0.00 | 0.00 | 0.00 | 23 | 1012.7 |
| 20260507001058 | 85 | 186 | 2.6 | 8.7 | 0.00 | 0.00 | 0.00 | 23 | 1012.7 |
| 20260507000559 | 85 | 92 | 4.3 | 8.7 | 0.00 | 0.00 | 0.00 | 23 | 1012.7 |
| 20260507000058 | 85 | 152 | 1.7 | 7.0 | 0.00 | 0.00 | 0.00 | 22 | 1012.7 |
| 20260506235559 | 85 | 257 | 3.5 | 7.0 | 0.00 | 0.00 | 0.00 | 23 | 1012.7 |
| 20260506235059 | 85 | 208 | 1.7 | 8.7 | 0.00 | 0.00 | 0.00 | 24 | 1012.7 |
| 20260506234558 | 85 | 229 | 3.5 | 8.7 | 0.00 | 0.00 | 0.00 | 23 | 1012.7 |
| 20260506234058 | 84 | 199 | 3.5 | 7.8 | 0.00 | 0.00 | 0.00 | 24 | 1012.7 |
| 20260506233559 | 85 | 154 | 5.2 | 7.8 | 0.00 | 0.00 | 0.00 | 23 | 1012.8 |
| 20260506233117 | 85 | 178 | 2.6 | 9.6 | 0.00 | 0.00 | 0.00 | 23 | 1012.9 |
| 20260506232558 | 85 | 181 | 2.6 | 9.6 | 0.00 | 0.00 | 0.00 | 23 | 1013.0 |
| 20260506232058 | 85 | 221 | 4.3 | 9.6 | 0.00 | 0.00 | 0.00 | 23 | 1013.0 |
| 20260506231559 | 85 | 179 | 1.7 | 7.8 | 0.00 | 0.00 | 0.00 | 24 | 1013.1 |
| 20260506231100 | 85 | 105 | 3.5 | 7.8 | 0.00 | 0.00 | 0.00 | 23 | 1013.2 |
| 20260506230558 | 85 | 211 | 2.6 | 7.0 | 0.00 | 0.00 | 0.00 | 24 | 1013.1 |
| 20260506230058 | 84 | 183 | 1.7 | 5.2 | 0.00 | 0.00 | 0.00 | 24 | 1013.2 |
| 20260506225558 | 84 | 167 | 1.7 | 5.2 | 0.00 | 0.00 | 0.00 | 23 | 1013.1 |
| 20260506225059 | 85 | 0 | 0.9 | 8.7 | 0.00 | 0.00 | 0.00 | 23 | 1013.2 |
| 20260506224559 | 85 | 273 | 0.9 | 9.6 | 0.00 | 0.00 | 0.00 | 23 | 1013.3 |
| 20260506224059 | 85 | 224 | 5.2 | 9.6 | 0.00 | 0.00 | 0.00 | 24 | 1013.4 |
| 20260506223601 | 84 | 122 | 2.6 | 7.0 | 0.00 | 0.00 | 0.00 | 24 | 1013.4 |
| 20260506223102 | 84 | 146 | 1.7 | 7.0 | 0.00 | 0.00 | 0.00 | 24 | 1013.5 |
| 20260506222559 | 84 | 145 | 3.5 | 7.8 | 0.00 | 0.00 | 0.00 | 25 | 1013.6 |
| 20260506222059 | 84 | 118 | 4.3 | 9.6 | 0.00 | 0.00 | 0.00 | 24 | 1013.6 |
| 20260506221600 | 85 | 210 | 5.2 | 9.6 | 0.00 | 0.00 | 0.00 | 24 | 1013.6 |
| 20260506221059 | 85 | 85 | 6.1 | 9.6 | 0.00 | 0.00 | 0.00 | 23 | 1013.6 |
| 20260506220559 | 84 | 200 | 3.5 | 9.6 | 0.00 | 0.00 | 0.00 | 24 | 1013.6 |
| 20260506220100 | 84 | 71 | 3.5 | 6.1 | 0.00 | 0.00 | 0.00 | 23 | 1013.8 |
| 20260506215559 | 85 | 160 | 2.6 | 6.1 | 0.00 | 0.00 | 0.00 | 24 | 1013.9 |
| 20260506215059 | 84 | 224 | 3.5 | 8.7 | 0.00 | 0.00 | 0.00 | 24 | 1013.9 |
| 20260506214558 | 84 | 124 | 2.6 | 8.7 | 0.00 | 0.00 | 0.00 | 25 | 1014.0 |
| 20260506214100 | 83 | 100 | 2.6 | 7.0 | 0.00 | 0.00 | 0.00 | 24 | 1014.1 |
| 20260506213559 | 84 | 132 | 2.6 | 7.0 | 0.00 | 0.00 | 0.00 | 24 | 1014.3 |
| 20260506213118 | 84 | 242 | 2.6 | 7.0 | 0.00 | 0.00 | 0.00 | 24 | 1014.4 |
| 20260506212559 | 83 | 237 | 3.5 | 7.0 | 0.00 | 0.00 | 0.00 | 25 | 1014.5 |
| 20260506212102 | 83 | 205 | 2.6 | 7.0 | 0.00 | 0.00 | 0.00 | 24 | 1014.6 |
| 20260506211559 | 83 | 162 | 3.5 | 9.6 | 0.00 | 0.00 | 0.00 | 24 | 1014.7 |
| 20260506211059 | 83 | 209 | 4.3 | 9.6 | 0.00 | 0.00 | 0.00 | 25 | 1014.8 |